Tracking 18850 objects as of 22-Nov-2017
HD Live streaming from Space Station
objects crossing your sky now

CS 3A

Track CS 3A now!
CS 3A is classified as:


NORAD ID: 18877
Int'l Code: 1988-012A
Perigee: 36,346.2 km
Apogee: 36,461.3 km
Inclination: 15.4 °
Period: 1,467.4 minutes
Semi major axis: 42774 km
RCS: 6.1699 m2 (large)
Launch date: February 19, 1988
Source: Japan (JPN)
Launch site: TANEGASHIMA SPACE CENTER (TNSTA)
aabbcc
Your satellite tracking list
Your tracking list is empty




NASA's NSSDC Master Catalog

Two Line Element Set (TLE):
1 18877U 88012A   17324.91920907 -.00000027 +00000-0 +00000-0 0  9994
2 18877 015.4314 017.7706 0013455 256.8786 010.5364 00.98134588096942
Source of the keplerian elements: AFSPC